Weather History for Marshfield, WI

Change the Weather History Date:

Wednesday, December 19, 2012

  Actual Average Record
Temperature  
Mean Temperature 26 °F -  
Max Temperature 30 °F 26 °F 52 °F (1923)
Min Temperature 23 °F 10 °F -27 °F (1983)
Degree Days  
Heating Degree Days 38    
Moisture  
Dew Point 25 °F    
Average Humidity 86    
Maximum Humidity 93    
Minimum Humidity 79    
Precipitation  
Precipitation 0.00 in - - ()
Sea Level Pressure  
Sea Level Pressure 29.97 in    
Wind  
Wind Speed 4 mph (South)    
Max Wind Speed 8 mph    
Max Gust Speed -    
Visibility 7 miles    
Events Snow    
Averages and records for this station are not official NWS values.
T = Trace of Precipitation, MM = Missing Value Source: NWS Daily Summary

Daily Weather History Graph

Daily Weather History Graph

Search for Another Location

Airport:

Trip Planner

Search our weather history database for the weather conditions in past years. The results will help you decide how hot, cold, wet, or windy it might be!

Date:

Astronomy

Dec. 19, 2012 Rise Set
Actual Time 7:33 AM CST 4:22 PM CST
Civil Twilight 7:00 AM CST 4:56 PM CST
Nautical Twilight 6:23 AM CST 5:33 PM CST
Astronomical Twilight 5:47 AM CST 6:08 PM CST
Moon 11:26 AM CST (12/19) No Moon Set
Length of Visible Light 9h 55m
Length of Day
8h 48m
Waxing Crescent, 45% of the Moon is Illuminated
Dec 19
Waxing Crescent
Dec 19
First Quarter
Dec 28
Full
Jan 4
Last Quarter
Jan 11
New

Hourly Weather History & Observations

Time (CST) Temp. Windchill Dew Point Humidity Pressure Visibility Wind Dir Wind Speed Gust Speed Precip Events Conditions
12:54 AM 23.0 °F 17.0 °F 19.9 °F 88% 29.88 in 6.0 mi WNW 4.6 mph - N/A   Overcast
1:54 AM 24.1 °F 19.7 °F 21.0 °F 88% 29.92 in 7.0 mi West 3.5 mph - N/A   Overcast
2:08 AM 24.8 °F 20.5 °F 21.2 °F 86% 29.86 in 7.0 mi West 3.5 mph - N/A   Overcast
2:54 AM 25.0 °F 19.3 °F 23.0 °F 92% 29.91 in 7.0 mi WNW 4.6 mph - N/A   Overcast
3:54 AM 26.1 °F 21.9 °F 23.0 °F 88% 29.92 in 7.0 mi West 3.5 mph - N/A   Overcast
4:25 AM 26.6 °F 21.2 °F 23.0 °F 86% 29.86 in 7.0 mi West 4.6 mph - N/A   Overcast
4:54 AM 26.1 °F 19.4 °F 24.1 °F 92% 29.91 in 8.0 mi WNW 5.8 mph - N/A   Overcast
5:47 AM 26.6 °F - 24.8 °F 93% 29.87 in 8.0 mi Calm Calm - N/A   Overcast
5:54 AM 27.0 °F - 24.1 °F 89% 29.94 in 8.0 mi Calm Calm - N/A   Overcast
6:54 AM 27.0 °F 20.5 °F 25.0 °F 92% 29.98 in 7.0 mi SSW 5.8 mph - N/A   Overcast
7:15 AM 26.6 °F 20.0 °F 24.8 °F 93% 29.93 in 7.0 mi SSW 5.8 mph - N/A   Overcast
7:54 AM 27.0 °F 20.5 °F 24.1 °F 89% 30.01 in 6.0 mi SSW 5.8 mph - N/A   Overcast
8:54 AM 27.0 °F 20.5 °F 25.0 °F 92% 30.01 in 4.0 mi SSW 5.8 mph - N/A   Overcast
9:20 AM 28.4 °F 21.2 °F 24.8 °F 86% 29.96 in 4.0 mi SSW 6.9 mph - N/A   Overcast
9:54 AM 28.0 °F 21.7 °F 26.1 °F 92% 30.03 in 4.0 mi SW 5.8 mph - N/A   Overcast
10:54 AM 30.0 °F 25.2 °F 26.1 °F 85% 30.03 in 5.0 mi SW 4.6 mph - N/A   Overcast
11:38 AM 30.2 °F 26.7 °F 26.6 °F 86% 29.96 in 6.0 mi SSW 3.5 mph - N/A   Overcast
11:54 AM 30.9 °F 26.2 °F 25.0 °F 79% 30.02 in 7.0 mi West 4.6 mph - N/A   Overcast
12:54 PM 30.9 °F 26.2 °F 25.0 °F 79% 30.02 in 7.0 mi West 4.6 mph - N/A   Overcast
1:54 PM 30.9 °F 27.5 °F 25.0 °F 79% 30.03 in 7.0 mi West 3.5 mph - N/A   Overcast
2:54 PM 30.9 °F 27.5 °F 25.0 °F 79% 30.03 in 8.0 mi West 3.5 mph - N/A   Overcast
3:54 PM 30.9 °F - 26.1 °F 82% 30.07 in 7.0 mi Calm Calm - N/A   Overcast
4:29 PM 30.2 °F - 26.6 °F 86% 30.00 in 8.0 mi Calm Calm - N/A   Overcast
4:54 PM 30.9 °F - 26.1 °F 82% 30.05 in 8.0 mi Calm Calm - N/A   Overcast
5:26 PM 28.4 °F 24.6 °F 24.8 °F 86% 29.98 in 7.0 mi ENE 3.5 mph - N/A   Partly Cloudy
5:46 PM 28.4 °F 23.3 °F 24.8 °F 86% 29.98 in 7.0 mi East 4.6 mph - N/A   Mostly Cloudy
5:54 PM 28.9 °F 22.8 °F 25.0 °F 85% 30.04 in 7.0 mi East 5.8 mph - N/A   Mostly Cloudy
6:54 PM 28.9 °F 22.8 °F 25.0 °F 85% 30.03 in 8.0 mi East 5.8 mph - N/A   Overcast
7:26 PM 28.4 °F 23.3 °F 24.8 °F 86% 29.97 in 8.0 mi ESE 4.6 mph - N/A   Overcast
7:54 PM 28.9 °F 23.9 °F 25.0 °F 85% 30.04 in 8.0 mi SE 4.6 mph - N/A   Overcast
8:39 PM 28.4 °F 23.3 °F 24.8 °F 86% 29.98 in 8.0 mi ESE 4.6 mph - N/A   Overcast
8:54 PM 28.9 °F 23.9 °F 25.0 °F 85% 30.03 in 8.0 mi East 4.6 mph - N/A   Overcast
9:30 PM 28.4 °F 24.6 °F 24.8 °F 86% 29.98 in 8.0 mi ENE 3.5 mph - N/A   Overcast
9:52 PM 28.4 °F 22.2 °F 24.8 °F 86% 29.96 in 8.0 mi ENE 5.8 mph - N/A   Overcast
9:54 PM 28.9 °F 22.8 °F 25.0 °F 85% 30.01 in 8.0 mi ENE 5.8 mph - N/A   Overcast
10:54 PM 28.9 °F 21.9 °F 25.0 °F 85% 29.99 in 8.0 mi ENE 6.9 mph - N/A   Overcast
11:13 PM 28.4 °F 22.2 °F 24.8 °F 86% 29.94 in 8.0 mi East 5.8 mph - N/A   Overcast
11:49 PM 28.4 °F 20.4 °F 24.8 °F 86% 29.91 in 2.0 mi NE 8.1 mph - 0.00 in Snow Light Snow
11:54 PM 28.0 °F 20.0 °F 25.0 °F 88% 29.96 in 1.8 mi NE 8.1 mph - 0.00 in Snow Light Snow